Weather History for Du Bois, PA

Change the Weather History Date:

Thursday, March 13, 2014

  Actual Average Record
Temperature  
Mean Temperature 16 °F 34 °F  
Max Temperature 21 °F 43 °F 69 °F (1990)
Min Temperature 10 °F 24 °F 7 °F (1992)
Degree Days  
Heating Degree Days 50 31  
Month to date heating degree days 433  
Since 1 July heating degree days 5456  
Cooling Degree Days 0 0  
Month to date cooling degree days 0  
Year to date cooling degree days 0  
Moisture  
Dew Point 1 °F    
Average Humidity 47    
Maximum Humidity 57    
Minimum Humidity 38    
Precipitation  
Precipitation 0.00 in 0.10 in 1.63 in (1993)
Month to date precipitation 1.30  
Sea Level Pressure  
Sea Level Pressure 29.78 in    
Wind  
Wind Speed 14 mph (WNW)    
Max Wind Speed 20 mph    
Max Gust Speed 30 mph    
Visibility 7 miles    
Events Rain    
T = Trace of Precipitation, MM = Missing Value Source: NWS Daily Summary

Daily Weather History Graph

Daily Weather History Graph

Search for Another Location

Airport:

Trip Planner

Search our weather history database for the weather conditions in past years. The results will help you decide how hot, cold, wet, or windy it might be!

Date:

Astronomy

Mar. 13, 2014 Rise Set
Actual Time 7:30 AM EDT 7:20 PM EDT
Civil Twilight 7:03 AM EDT 7:47 PM EDT
Nautical Twilight 6:31 AM EDT 8:19 PM EDT
Astronomical Twilight 5:58 AM EDT 8:51 PM EDT
Moon 4:43 PM EDT (3/13) 5:37 AM EDT (3/13)
Length of Visible Light 12h 44m
Length of Day
11h 49m
Waxing Gibbous, 91% of the Moon is Illuminated
Mar 13
Waxing Gibbous
Mar 16
Full
Mar 23
Last Quarter
Mar 30
New
Apr 7
First Quarter

Hourly Weather History & Observations

Time (EDT) Temp. Windchill Dew Point Humidity Pressure Visibility Wind Dir Wind Speed Gust Speed Precip Events Conditions
12:04 AM - - - N/A% 29.61 in 2.5 mi WNW 17.3 mph 26.5 mph 0.00 in Rain Light Rain
12:12 AM - - - N/A% 29.61 in 6.0 mi NNW 10.4 mph 25.3 mph 0.00 in Rain Light Rain
12:49 AM - - - N/A% 29.61 in 10.0 mi NW 16.1 mph 28.8 mph 0.00 in   Overcast
12:56 AM - - - N/A% 29.61 in 9.0 mi NW 13.8 mph 21.9 mph 0.00 in   Overcast
1:23 AM - - - N/A% 29.62 in 8.0 mi NW 18.4 mph 28.8 mph N/A   Overcast
1:30 AM - - - N/A% 29.62 in 7.0 mi NW 16.1 mph 25.3 mph N/A   Overcast
1:37 AM - - - N/A% 29.62 in 4.0 mi NW 11.5 mph - N/A   Haze
1:56 AM - - - N/A% 29.63 in 9.0 mi NW 15.0 mph 21.9 mph N/A   Overcast
2:56 AM - - - N/A% 29.64 in 6.0 mi NW 12.7 mph 23.0 mph 0.00 in   Haze
3:11 AM - - - N/A% 29.65 in 5.0 mi NW 12.7 mph 20.7 mph N/A   Haze
3:32 AM - - - N/A% 29.65 in 1.8 mi NW 10.4 mph - 0.00 in   Unknown
3:38 AM - - - N/A% 29.66 in 0.8 mi WNW 8.1 mph - 0.00 in   Unknown
3:51 AM - - - N/A% 29.66 in 1.2 mi WNW 13.8 mph - 0.00 in   Unknown
3:56 AM - - - N/A% 29.66 in 1.5 mi WNW 12.7 mph - 0.00 in   Unknown
4:03 AM - - - N/A% 29.66 in 2.0 mi WNW 18.4 mph 25.3 mph 0.00 in   Unknown
4:22 AM - - - N/A% 29.68 in 4.0 mi WNW 15.0 mph 23.0 mph 0.00 in   Haze
4:51 AM - - - N/A% 29.68 in 4.0 mi WNW 17.3 mph 21.9 mph 0.00 in   Haze
4:56 AM - - - N/A% 29.68 in 5.0 mi WNW 16.1 mph 23.0 mph 0.00 in   Haze
5:38 AM - - - N/A% 29.70 in 10.0 mi WNW 16.1 mph 23.0 mph N/A   Scattered Clouds
5:56 AM - - - N/A% 29.71 in 10.0 mi WNW 15.0 mph 24.2 mph N/A   Clear
6:14 AM - - - N/A% 29.72 in 2.5 mi WNW 10.4 mph - 0.00 in   Unknown
6:31 AM - - - N/A% 29.73 in 7.0 mi West 18.4 mph 26.5 mph 0.00 in   Mostly Cloudy
6:56 AM - - - N/A% 29.75 in 10.0 mi WNW 15.0 mph 26.5 mph 0.00 in   Partly Cloudy
7:34 AM - - - N/A% 29.77 in 8.0 mi WNW 13.8 mph - N/A   Mostly Cloudy
7:56 AM - - - N/A% 29.78 in 7.0 mi WNW 15.0 mph 21.9 mph N/A   Overcast
8:29 AM - - - N/A% 29.80 in 10.0 mi WNW 13.8 mph 21.9 mph N/A   Scattered Clouds
8:56 AM - - - N/A% 29.82 in 10.0 mi WNW 10.4 mph 20.7 mph N/A   Clear
9:56 AM - - - N/A% 29.85 in 10.0 mi WNW 12.7 mph 18.4 mph N/A   Clear
10:56 AM 10.9 °F -4.1 °F -4.0 °F 51% 29.87 in 10.0 mi WNW 12.7 mph 24.2 mph N/A   Clear
11:56 AM 15.1 °F 1.1 °F -2.9 °F 45% 29.89 in 10.0 mi WNW 12.7 mph 27.6 mph N/A   Clear
12:56 PM - - - N/A% 29.91 in 10.0 mi West 17.3 mph 26.5 mph N/A   Clear
1:56 PM 19.0 °F 3.2 °F 1.0 °F 46% 29.92 in 10.0 mi West 19.6 mph 29.9 mph N/A   Clear
2:56 PM 19.0 °F 3.6 °F 1.0 °F 46% 29.92 in 10.0 mi West 18.4 mph 26.5 mph N/A   Clear
3:56 PM 19.9 °F 5.7 °F 1.0 °F 44% 29.92 in 10.0 mi NW 16.1 mph 25.3 mph N/A   Clear
4:56 PM 21.0 °F 7.1 °F 1.0 °F 42% 29.94 in 10.0 mi West 16.1 mph 21.9 mph N/A   Clear
5:56 PM 21.0 °F 8.6 °F -0.0 °F 40% 29.96 in 10.0 mi West 12.7 mph 23.0 mph N/A   Clear
6:56 PM 19.9 °F 6.2 °F -2.0 °F 38% 29.98 in 10.0 mi West 15.0 mph 24.2 mph N/A   Clear
7:56 PM 19.0 °F 7.5 °F -0.0 °F 43% 30.01 in 10.0 mi West 10.4 mph - N/A   Clear
8:56 PM 18.0 °F 8.7 °F 1.9 °F 50% 30.01 in 10.0 mi West 6.9 mph - N/A   Overcast
9:56 PM 18.0 °F 6.9 °F 3.9 °F 54% 30.02 in 10.0 mi WSW 9.2 mph - N/A   Clear
10:56 PM 18.0 °F 11.1 °F 5.0 °F 57% 30.12 in 10.0 mi SW 4.6 mph - N/A   Mostly Cloudy
11:56 PM 18.0 °F 11.1 °F 5.0 °F 57% 30.11 in 10.0 mi SSW 4.6 mph - N/A   Mostly Cloudy